[[{"header":{"parameterUnit":"m.s-1","parameterCategory":2,"la1":30.2992,"la2":30.254,"lo1":-89.0895,"lo2":-89.0443,"dy":0.0025,"dx":0.0025,"nx":19,"ny":19,"refTime":"2026-03-10T03:00:00:Z","depth":"0","parameterNumber":2,"parameterNumberName":"U-component_of_CURRENTS"},"data":[0,0,0,0.2481,0.2481,0.2471,0.2471,0.2505,0.2505,0,0,0,0,0,0,0,0,0,0,0,0.2488,0.2488,0.2481,0.2481,0.2471,0.2471,0.2505,0.2505,0,0,0,0,0,0,0,0,0,0,0,0.2488,0.2488,0.2488,0.2481,0.2471,0.2471,0.2504,0.2499,0,0,0,0,0,0,0,0,0,0,0.2502,0.2504,0.2488,0.2488,0.2481,0.2471,0.2471,0.2498,0.2499,0.2524,0,0.2528,0,0.2519,0.2509,0.2509,0,0,0,0.2476,0.2502,0.2501,0.2488,0.2481,0.2471,0.2474,0.2499,0.25,0.2525,0.2528,0.2529,0.252,0.2509,0.251,0.2617,0.2618,0,0,0.2476,0.2485,0.25,0.2502,0.2487,0.2474,0.2474,0.2499,0.2505,0.2528,0.253,0.2521,0.251,0.251,0.2616,0.2617,0,0,0,0.2481,0.2485,0.2482,0.2502,0.2497,0.2474,0.2474,0.2504,0.2503,0.253,0.2521,0.251,0.2511,0.2616,0.2617,0.2762,0,0,0,0.2481,0.2488,0.2483,0.2487,0.2497,0.2494,0.2478,0.2501,0.2504,0.2521,0.251,0.2511,0.2615,0.2616,0.2757,0.2811,0,0,0,0.2487,0.2489,0.249,0.2488,0.2485,0.2493,0.2493,0.2501,0.2499,0.2509,0.2511,0.2614,0.2616,0.2752,0.2802,0.2917,0,0,0,0.2491,0.2505,0.2491,0.2503,0.2486,0.2499,0.2493,0.2497,0.2506,0.251,0.2615,0.2617,0.275,0.2797,0.2911,0.2879,0.2905,0,0,0.251,0.2507,0.2513,0.2501,0.2526,0.2499,0.257,0.2572,0.2547,0.2607,0.2609,0.2759,0.2801,0.2916,0.2983,0.3007,0,0,0,0.252,0.2536,0.2536,0.255,0.2546,0.2612,0.2601,0.2634,0.2702,0.2562,0.2754,0.2776,0.2845,0.2812,0.2831,0.2709,0.2625,0.2625,0.2625,0.2557,0.2562,0.2588,0.2614,0.2641,0.2692,0.2765,0.2816,0.2769,0.2833,0.2893,0.3073,0.3038,0.3052,0.2928,0.2894,0.2895,0.2895,0.2895,0.2592,0.2609,0.2647,0.2675,0.2746,0.2814,0.295,0.2975,0.3127,0.3035,0.3095,0.2962,0.3082,0.2941,0.2905,0.2903,0.2902,0.2901,0.29,0.2606,0.2621,0.2638,0.2709,0.2818,0.2906,0.3073,0.3173,0.3238,0.333,0.328,0.3276,0.3155,0.336,0.3361,0.3362,0.3362,0.3363,0.3364,0.2603,0.263,0.2672,0.2756,0.2816,0.2949,0.3158,0.3275,0.3414,0.3432,0.3432,0.3197,0.3214,0.3199,0.3376,0.3373,0.3372,0.3371,0.337,0.2637,0.2635,0.2698,0.2747,0.2874,0.294,0.3156,0.336,0.3522,0.358,0.3402,0.3494,0.3446,0.3427,0.3416,0.3638,0.3638,0.3638,0.3638,0.2652,0.2658,0.2706,0.2762,0.2856,0.2935,0.3026,0.3215,0.3389,0.3411,0.3447,0.3305,0.33,0.3234,0.3219,0.3199,0.3362,0.3362,0.3361,0.2688,0.2689,0.271,0.2731,0.2813,0.2867,0.2849,0.289,0.3161,0.3338,0.3296,0.3308,0.3082,0.3083,0.2954,0.2944,0.2901,0,0]},{"header":{"parameterUnit":"m.s-1","parameterCategory":2,"la1":30.2992,"la2":30.254,"lo1":-89.0895,"lo2":-89.0443,"dy":0.0025,"dx":0.0025,"nx":19,"ny":19,"refTime":"2026-03-10T03:00:00:Z","depth":"0","parameterNumber":3,"parameterNumberName":"V-component_of_CURRENTS"},"data":[0,0,0,0.0284,0.0284,0.0248,0.0248,0.0179,0.0178,0,0,0,0,0,0,0,0,0,0,0,0.0294,0.0294,0.0284,0.0284,0.0248,0.0248,0.0179,0.0178,0,0,0,0,0,0,0,0,0,0,0,0.0294,0.0294,0.0294,0.0283,0.0248,0.0248,0.0179,0.0209,0,0,0,0,0,0,0,0,0,0,0.0245,0.0263,0.0294,0.0294,0.0283,0.0248,0.0248,0.0211,0.0207,0.0192,0,0.0193,0,0.019,0.0174,0.0174,0,0,0,0.0272,0.0266,0.0258,0.0294,0.0283,0.0248,0.0261,0.0209,0.0205,0.0187,0.0192,0.019,0.0189,0.0174,0.0174,0.0212,0.0213,0,0,0.0274,0.0283,0.0261,0.0256,0.0282,0.0262,0.026,0.0207,0.0205,0.0192,0.0188,0.0187,0.0174,0.0173,0.0212,0.0213,0,0,0,0.0287,0.0285,0.0278,0.0258,0.0257,0.0261,0.0259,0.0207,0.0205,0.0187,0.0187,0.0173,0.0172,0.0211,0.0212,0.0367,0,0,0,0.0288,0.0293,0.0279,0.0283,0.0258,0.0236,0.026,0.0209,0.0203,0.0187,0.0173,0.0172,0.021,0.0211,0.0361,0.0476,0,0,0,0.0294,0.0294,0.0293,0.0284,0.0274,0.0236,0.0231,0.0207,0.0203,0.0174,0.0172,0.0209,0.0211,0.0355,0.0465,0.0567,0,0,0,0.03,0.0331,0.0293,0.0328,0.0275,0.0299,0.0231,0.0229,0.0212,0.0173,0.021,0.0212,0.0354,0.0457,0.0559,0.0629,0.0669,0,0,0.0351,0.0338,0.0361,0.0326,0.0373,0.0302,0.0369,0.0307,0.024,0.0221,0.0221,0.0363,0.0464,0.0565,0.075,0.0786,0,0,0,0.0385,0.041,0.0414,0.0429,0.0417,0.0455,0.0386,0.0377,0.037,0.0241,0.0362,0.0422,0.048,0.0506,0.0535,0.0326,0.0222,0.0221,0.0221,0.0476,0.0475,0.0533,0.0543,0.0561,0.0555,0.0592,0.0569,0.0462,0.0492,0.0546,0.0733,0.0761,0.0783,0.0566,0.0516,0.0517,0.0517,0.0518,0.0598,0.0645,0.0651,0.0711,0.0729,0.0782,0.0807,0.0769,0.0831,0.0703,0.075,0.0666,0.0825,0.0581,0.0528,0.0526,0.0525,0.0524,0.0523,0.0679,0.0705,0.0734,0.083,0.0929,0.0952,0.1106,0.1076,0.1007,0.1066,0.1051,0.1048,0.0837,0.1065,0.1066,0.1067,0.1068,0.1069,0.107,0.075,0.0783,0.0867,0.0968,0.1051,0.1188,0.1291,0.1351,0.1353,0.127,0.1269,0.0888,0.09,0.0882,0.1085,0.1082,0.108,0.1079,0.1078,0.0855,0.0852,0.099,0.1076,0.1286,0.1481,0.1559,0.1684,0.1702,0.1715,0.1237,0.1363,0.1328,0.1302,0.1293,0.1591,0.1591,0.1591,0.1591,0.0907,0.0923,0.1092,0.125,0.1462,0.1618,0.188,0.1939,0.1684,0.1486,0.1327,0.1165,0.1153,0.1095,0.1073,0.1053,0.1283,0.1282,0.1282,0.0971,0.1013,0.1141,0.1289,0.1534,0.1769,0.2016,0.2091,0.1627,0.124,0.1028,0.1041,0.0763,0.0762,0.0627,0.0614,0.0565,0,0]}],[{"header":{"parameterUnit":"m.s-1","parameterCategory":2,"la1":30.2992,"la2":30.254,"lo1":-89.0895,"lo2":-89.0443,"dy":0.0025,"dx":0.0025,"nx":19,"ny":19,"refTime":"2026-03-10T03:00:00:Z","depth":"2","parameterNumber":2,"parameterNumberName":"U-component_of_CURRENTS"},"data":[0,0,0,0.2095,0.2097,0.2168,0.2168,0.2237,0.2238,0,0,0,0,0,0,0,0,0,0,0,0.207,0.207,0.2095,0.2097,0.2168,0.2168,0.2237,0.2238,0,0,0,0,0,0,0,0,0,0,0,0.2069,0.207,0.2071,0.2097,0.2168,0.2168,0.2237,0.2187,0,0,0,0,0,0,0,0,0,0,0.212,0.2103,0.207,0.2071,0.2098,0.2168,0.2168,0.2185,0.219,0.22,0,0.2219,0,0.2234,0.2242,0.2243,0,0,0,0.209,0.2098,0.2119,0.2071,0.2098,0.2168,0.2134,0.2188,0.2194,0.2207,0.222,0.2223,0.2235,0.2243,0.2243,0.2338,0.2338,0,0,0.2086,0.208,0.2115,0.2123,0.2127,0.2132,0.2136,0.2192,0.2201,0.222,0.2225,0.2236,0.2243,0.2244,0.2337,0.2338,0,0,0,0.2079,0.2077,0.2097,0.212,0.2137,0.2134,0.2139,0.2198,0.2206,0.2225,0.2237,0.2244,0.2244,0.2337,0.2338,0.2424,0,0,0,0.2077,0.2074,0.2095,0.2091,0.2136,0.2172,0.2144,0.2201,0.2208,0.2236,0.2244,0.2245,0.2336,0.2337,0.2421,0.2446,0,0,0,0.2065,0.2072,0.2084,0.2091,0.2125,0.2172,0.2182,0.2203,0.2216,0.2243,0.2245,0.2336,0.2337,0.2418,0.2441,0.2575,0,0,0,0.205,0.2071,0.2084,0.2115,0.2124,0.2172,0.2182,0.222,0.2244,0.2244,0.2336,0.2338,0.2417,0.2437,0.257,0.2449,0.2462,0,0,0.2064,0.2072,0.2091,0.2104,0.2149,0.2161,0.223,0.2266,0.2267,0.2314,0.2317,0.2422,0.244,0.2574,0.2519,0.253,0,0,0,0.2088,0.21,0.2116,0.215,0.2184,0.225,0.2277,0.231,0.2379,0.229,0.2422,0.2431,0.2514,0.2429,0.2438,0.2343,0.2343,0.2343,0.2343,0.2086,0.2112,0.2148,0.2194,0.2239,0.2311,0.238,0.2433,0.2417,0.247,0.2503,0.2659,0.2568,0.2574,0.2509,0.251,0.251,0.251,0.2511,0.2102,0.2127,0.218,0.2223,0.2302,0.2371,0.2504,0.2536,0.2661,0.259,0.2669,0.2523,0.2588,0.2518,0.2516,0.2515,0.2515,0.2514,0.2514,0.2096,0.2114,0.215,0.2226,0.2335,0.2437,0.2584,0.2673,0.2747,0.2812,0.2761,0.2757,0.2739,0.2873,0.2874,0.2875,0.2876,0.2876,0.2877,0.2075,0.2115,0.2164,0.2244,0.2322,0.2436,0.2646,0.274,0.284,0.2843,0.2842,0.2783,0.2771,0.2761,0.2888,0.2886,0.2884,0.2883,0.2882,0.2072,0.2099,0.2154,0.2221,0.2342,0.2378,0.2599,0.2738,0.2885,0.2902,0.2883,0.2879,0.2852,0.2841,0.2832,0.2971,0.2971,0.2971,0.2971,0.2068,0.2085,0.2151,0.2228,0.2279,0.2355,0.2377,0.2456,0.2652,0.2691,0.2703,0.255,0.2553,0.25,0.2497,0.2477,0.2524,0.2523,0.2522,0.2076,0.2092,0.2114,0.2163,0.2242,0.2231,0.2149,0.2084,0.2248,0.2501,0.2592,0.2948,0.2747,0.2743,0.2675,0.2665,0.2639,0,0]},{"header":{"parameterUnit":"m.s-1","parameterCategory":2,"la1":30.2992,"la2":30.254,"lo1":-89.0895,"lo2":-89.0443,"dy":0.0025,"dx":0.0025,"nx":19,"ny":19,"refTime":"2026-03-10T03:00:00:Z","depth":"2","parameterNumber":3,"parameterNumberName":"V-component_of_CURRENTS"},"data":[0,0,0,0.0109,0.0109,0.0094,0.0094,0.0042,0.0042,0,0,0,0,0,0,0,0,0,0,0,0.0111,0.0111,0.0109,0.0109,0.0094,0.0094,0.0042,0.0042,0,0,0,0,0,0,0,0,0,0,0,0.0111,0.0111,0.0111,0.0109,0.0094,0.0094,0.0043,0.006,0,0,0,0,0,0,0,0,0,0,0.0078,0.0088,0.0111,0.0111,0.0109,0.0094,0.0094,0.0061,0.0059,0.0043,0,0.0045,0,0.0047,0.0039,0.0038,0,0,0,0.01,0.009,0.0087,0.0111,0.0109,0.0094,0.0098,0.006,0.0057,0.004,0.0045,0.0043,0.0046,0.0038,0.0038,0.0048,0.0049,0,0,0.0101,0.0104,0.0089,0.0086,0.011,0.0099,0.0098,0.0059,0.0056,0.0044,0.0042,0.0045,0.0038,0.0038,0.0048,0.0048,0,0,0,0.011,0.0105,0.0104,0.0088,0.009,0.0099,0.0097,0.0058,0.0058,0.0041,0.0045,0.0038,0.0037,0.0047,0.0048,0.0132,0,0,0,0.011,0.0111,0.0104,0.0105,0.0091,0.0079,0.0098,0.0061,0.0057,0.0045,0.0038,0.0037,0.0047,0.0048,0.0129,0.0182,0,0,0,0.0111,0.0111,0.0111,0.0106,0.0104,0.008,0.0077,0.006,0.0059,0.0038,0.0036,0.0046,0.0048,0.0126,0.0176,0.0254,0,0,0,0.0111,0.013,0.0111,0.0135,0.0104,0.0126,0.0078,0.0081,0.0069,0.0037,0.0047,0.0048,0.0125,0.0172,0.025,0.0267,0.0288,0,0,0.014,0.0133,0.015,0.0134,0.0167,0.0127,0.0164,0.0122,0.008,0.0054,0.0055,0.013,0.0176,0.0253,0.0334,0.0353,0,0,0,0.0163,0.0176,0.0184,0.0196,0.0198,0.0216,0.0175,0.0163,0.0145,0.008,0.013,0.0156,0.0203,0.0204,0.0219,0.0054,0.0053,0.0053,0.0053,0.0204,0.0211,0.0249,0.0262,0.0277,0.0272,0.0287,0.0262,0.02,0.021,0.0224,0.0342,0.0342,0.0354,0.0214,0.0214,0.0215,0.0215,0.0215,0.0265,0.0296,0.0309,0.035,0.0363,0.0393,0.0401,0.0372,0.0387,0.0308,0.0348,0.0291,0.0376,0.0222,0.0221,0.022,0.0219,0.0219,0.0218,0.0299,0.032,0.0342,0.0406,0.0471,0.0491,0.0594,0.0552,0.0491,0.0515,0.0511,0.0509,0.041,0.0532,0.0533,0.0533,0.0534,0.0534,0.0534,0.0329,0.0355,0.0417,0.0481,0.0545,0.064,0.0708,0.0736,0.0699,0.0623,0.0622,0.0449,0.0438,0.0429,0.0544,0.0542,0.0541,0.054,0.0539,0.0383,0.0399,0.0487,0.0552,0.07,0.0861,0.0906,0.0968,0.0946,0.0927,0.0686,0.068,0.0661,0.0647,0.0642,0.0806,0.0806,0.0806,0.0806,0.0424,0.0436,0.057,0.0685,0.0828,0.0967,0.1161,0.1136,0.0997,0.0863,0.086,0.0777,0.0765,0.0747,0.073,0.0724,0.0909,0.091,0.091,0.0474,0.0505,0.0609,0.0717,0.0895,0.1094,0.1295,0.1265,0.1002,0.0913,0.0866,0.0815,0.0681,0.0667,0.0622,0.0602,0.0585,0,0]}],[{"header":{"parameterUnit":"m.s-1","parameterCategory":2,"la1":30.2992,"la2":30.254,"lo1":-89.0895,"lo2":-89.0443,"dy":0.0025,"dx":0.0025,"nx":19,"ny":19,"refTime":"2026-03-10T03:00:00:Z","depth":"4","parameterNumber":2,"parameterNumberName":"U-component_of_CURRENTS"},"data":[0,0,0,0.1392,0.1395,0.1556,0.1557,0.1682,0.1683,0,0,0,0,0,0,0,0,0,0,0,0.1338,0.1339,0.1392,0.1396,0.1556,0.1557,0.1682,0.1683,0,0,0,0,0,0,0,0,0,0,0,0.1337,0.1339,0.134,0.1396,0.1556,0.1557,0.1682,0.158,0,0,0,0,0,0,0,0,0,0,0.1434,0.14,0.1339,0.1341,0.1397,0.1556,0.1557,0.1576,0.1586,0.1587,0,0.1621,0,0.1654,0.169,0.169,0,0,0,0.1395,0.1391,0.1432,0.1341,0.1399,0.1556,0.1483,0.1582,0.1594,0.16,0.1623,0.1629,0.1656,0.169,0.1691,0.1798,0.1799,0,0,0.1386,0.1368,0.1424,0.1439,0.1452,0.1478,0.1488,0.159,0.1607,0.1624,0.1632,0.1658,0.1691,0.1692,0.1798,0.1798,0,0,0,0.1361,0.1361,0.1401,0.1433,0.1469,0.1483,0.1495,0.1602,0.1616,0.1634,0.166,0.1691,0.1693,0.1797,0.1798,0.1848,0,0,0,0.1356,0.1347,0.1397,0.1388,0.1468,0.155,0.1504,0.1609,0.1621,0.1659,0.1692,0.1694,0.1797,0.1798,0.1846,0.1851,0,0,0,0.1329,0.1344,0.1366,0.1387,0.1457,0.1549,0.1569,0.1613,0.1637,0.169,0.1694,0.1797,0.1798,0.1844,0.1848,0.1902,0,0,0,0.1299,0.133,0.1366,0.1413,0.1455,0.154,0.1569,0.1647,0.1694,0.1692,0.1797,0.1798,0.1843,0.1846,0.19,0.1662,0,0,0,0.1314,0.1332,0.1358,0.1393,0.1465,0.1517,0.1605,0.1684,0.1707,0.1756,0.176,0.1847,0.1848,0.1902,0.1725,0,0,0,0,0.1346,0.1366,0.1395,0.1452,0.1516,0.1594,0.1672,0.1714,0.18,0.1742,0.1854,0.1852,0.1885,0.1739,0.1803,0.1803,0.1803,0.1803,0.1803,0.1333,0.1372,0.1418,0.1482,0.1542,0.1656,0.1728,0.1798,0.1821,0.1872,0.1899,0.1979,0.1826,0.1914,0.1914,0.1915,0.1915,0.1915,0.1915,0.1333,0.1349,0.1424,0.1483,0.1574,0.1658,0.179,0.1846,0.1962,0.1948,0.1979,0.1808,0.192,0.1919,0.1918,0.1918,0.1917,0.1917,0.1917,0.1296,0.1307,0.1365,0.1446,0.1553,0.1673,0.1779,0.1904,0.1992,0.2045,0.1912,0.2018,0.2008,0.2082,0.2082,0.2083,0.2083,0.2083,0.2083,0.1219,0.1274,0.1303,0.1411,0.1465,0.1587,0.1792,0.1865,0.1992,0.1934,0.2073,0.2035,0.203,0.2017,0.2088,0.2087,0.2086,0.2086,0.2086,0.1129,0.1177,0.1198,0.1242,0.1356,0.143,0.1655,0.1776,0.1848,0.1847,0.1877,0.1886,0.1847,0.1846,0.1826,0.1842,0.1839,0.1836,0,0.1057,0.1085,0.1091,0.1109,0.1156,0.1316,0.1372,0.1509,0.1649,0.1595,0.182,0.1847,0.1854,0.1802,0.1798,0.1767,0,0,0,0.0976,0.0998,0.096,0.1008,0.1044,0.1181,0.1377,0.1387,0.1631,0.1646,0.1766,0.1784,0.1936,0.21,0.2062,0.2056,0.2034,0,0]},{"header":{"parameterUnit":"m.s-1","parameterCategory":2,"la1":30.2992,"la2":30.254,"lo1":-89.0895,"lo2":-89.0443,"dy":0.0025,"dx":0.0025,"nx":19,"ny":19,"refTime":"2026-03-10T03:00:00:Z","depth":"4","parameterNumber":3,"parameterNumberName":"V-component_of_CURRENTS"},"data":[0,0,0,0.0098,0.0098,0.0087,0.0087,0.0052,0.0052,0,0,0,0,0,0,0,0,0,0,0,0.01,0.01,0.0098,0.0098,0.0087,0.0087,0.0052,0.0052,0,0,0,0,0,0,0,0,0,0,0,0.01,0.01,0.01,0.0098,0.0087,0.0087,0.0052,0.0064,0,0,0,0,0,0,0,0,0,0,0.0077,0.0084,0.01,0.01,0.0098,0.0087,0.0086,0.0065,0.0064,0.0054,0,0.0055,0,0.0056,0.005,0.005,0,0,0,0.0091,0.0085,0.0084,0.01,0.0098,0.0087,0.009,0.0064,0.0063,0.0052,0.0055,0.0054,0.0056,0.005,0.0049,0.0048,0.0048,0,0,0.0092,0.0095,0.0085,0.0083,0.0099,0.009,0.009,0.0063,0.0062,0.0055,0.0053,0.0055,0.0049,0.0049,0.0047,0.0048,0,0,0,0.0098,0.0095,0.0094,0.0084,0.0085,0.009,0.0089,0.0063,0.0063,0.0053,0.0055,0.0049,0.0049,0.0047,0.0047,0.0099,0,0,0,0.0098,0.0099,0.0094,0.0095,0.0086,0.0077,0.009,0.0065,0.0062,0.0055,0.0049,0.0049,0.0047,0.0047,0.0097,0.0127,0,0,0,0.0099,0.0099,0.0099,0.0096,0.0094,0.0078,0.0076,0.0064,0.0064,0.005,0.0048,0.0047,0.0047,0.0095,0.0124,0.0139,0,0,0,0.01,0.0109,0.01,0.0113,0.0094,0.0108,0.0076,0.0079,0.0071,0.0049,0.0047,0.0047,0.0095,0.0121,0.0137,0.0173,0,0,0,0.0114,0.0111,0.0121,0.0112,0.0134,0.0108,0.0129,0.0102,0.0074,0.0052,0.0052,0.0098,0.0123,0.0138,0.0203,0,0,0,0,0.0127,0.0134,0.0139,0.0148,0.0151,0.0159,0.0135,0.0122,0.0104,0.0073,0.0094,0.0108,0.0116,0.0131,0.005,0.005,0.005,0.005,0.005,0.0143,0.0151,0.0174,0.0185,0.0195,0.0192,0.0192,0.0168,0.0137,0.0136,0.0147,0.0191,0.021,0.0139,0.0139,0.014,0.014,0.014,0.014,0.0172,0.019,0.0205,0.0231,0.0242,0.0259,0.0248,0.0229,0.022,0.0188,0.0192,0.0181,0.0145,0.0144,0.0143,0.0143,0.0142,0.0142,0.0142,0.0184,0.0197,0.0215,0.0262,0.0303,0.0314,0.0359,0.0329,0.0273,0.0281,0.0284,0.0224,0.0223,0.0281,0.0282,0.0282,0.0282,0.0282,0.0282,0.0192,0.0212,0.0259,0.0305,0.0355,0.0413,0.0428,0.0425,0.0372,0.0352,0.0299,0.0239,0.0234,0.023,0.0286,0.0285,0.0285,0.0284,0.0284,0.0215,0.0233,0.0304,0.0358,0.0472,0.0518,0.053,0.0508,0.0499,0.0464,0.0379,0.0373,0.0356,0.0348,0.0348,0.044,0.0441,0.0441,0,0.024,0.0249,0.0365,0.0464,0.0563,0.0594,0.062,0.0601,0.0514,0.0508,0.0482,0.0387,0.0382,0.0363,0.0357,0.0357,0,0,0,0.0273,0.0306,0.0396,0.0493,0.0611,0.0636,0.0632,0.0616,0.0528,0.0523,0.0459,0.0454,0.0383,0.0295,0.0255,0.025,0.0242,0,0]}]]